Year,Month,Day,Hour,Minute,Value (Times are PST for temperature in C)
2015,07,25,00,00,14.30
2015,07,25,00,01,14.30
2015,07,25,00,02,14.30
2015,07,25,00,03,14.30
2015,07,25,00,04,14.30
2015,07,25,00,05,14.30
2015,07,25,00,06,14.20
2015,07,25,00,07,14.20
2015,07,25,00,08,14.20
2015,07,25,00,09,14.20
2015,07,25,00,10,14.10
2015,07,25,00,11,14.10
2015,07,25,00,12,14.00
2015,07,25,00,13,14.00
2015,07,25,00,14,14.00
2015,07,25,00,15,13.90
2015,07,25,00,16,13.90
2015,07,25,00,17,13.90
2015,07,25,00,18,13.90
2015,07,25,00,19,13.90
2015,07,25,00,20,13.90
2015,07,25,00,21,13.90
2015,07,25,00,22,13.90
2015,07,25,00,23,13.90
2015,07,25,00,24,13.90
2015,07,25,00,25,13.90
2015,07,25,00,26,13.90
2015,07,25,00,27,13.90
2015,07,25,00,28,13.90
2015,07,25,00,29,13.80
2015,07,25,00,30,13.80
2015,07,25,00,31,13.80
2015,07,25,00,32,13.80
2015,07,25,00,33,13.80
2015,07,25,00,34,13.70
2015,07,25,00,35,13.70
2015,07,25,00,36,13.70
2015,07,25,00,37,13.70
2015,07,25,00,38,13.70
2015,07,25,00,39,13.70
2015,07,25,00,40,13.70
2015,07,25,00,41,13.70
2015,07,25,00,42,13.70
2015,07,25,00,43,13.70
2015,07,25,00,44,13.60
2015,07,25,00,45,13.60
2015,07,25,00,46,13.60
2015,07,25,00,47,13.60
2015,07,25,00,48,13.60
2015,07,25,00,49,13.60
2015,07,25,00,50,13.60
2015,07,25,00,51,13.60
2015,07,25,00,52,13.60
2015,07,25,00,53,13.60
2015,07,25,00,54,13.60
2015,07,25,00,55,13.60
2015,07,25,00,56,13.60
2015,07,25,00,57,13.60
2015,07,25,00,58,13.60
2015,07,25,00,59,13.50
2015,07,25,01,00,13.50
2015,07,25,01,01,13.50
2015,07,25,01,02,13.50
2015,07,25,01,03,13.40
2015,07,25,01,04,13.40
2015,07,25,01,05,13.40
2015,07,25,01,06,13.40
2015,07,25,01,07,13.40
2015,07,25,01,08,13.40
2015,07,25,01,09,13.40
2015,07,25,01,10,13.30
2015,07,25,01,11,13.30
2015,07,25,01,12,13.30
2015,07,25,01,13,13.30
2015,07,25,01,14,13.30
2015,07,25,01,15,13.30
2015,07,25,01,16,13.30
2015,07,25,01,17,13.30
2015,07,25,01,18,13.30
2015,07,25,01,19,13.30
2015,07,25,01,20,13.30
2015,07,25,01,21,13.30
2015,07,25,01,22,13.30
2015,07,25,01,23,13.30
2015,07,25,01,24,13.30
2015,07,25,01,25,13.30
2015,07,25,01,26,13.30
2015,07,25,01,27,13.30
2015,07,25,01,28,13.20
2015,07,25,01,29,13.20
2015,07,25,01,30,13.20
2015,07,25,01,31,13.20
2015,07,25,01,32,13.20
2015,07,25,01,33,13.20
2015,07,25,01,34,13.20
2015,07,25,01,35,13.10
2015,07,25,01,36,13.10
2015,07,25,01,37,13.10
2015,07,25,01,38,13.10
2015,07,25,01,39,13.10
2015,07,25,01,40,13.00
2015,07,25,01,41,13.00
2015,07,25,01,42,13.00
2015,07,25,01,43,13.00
2015,07,25,01,44,12.90
2015,07,25,01,45,12.90
2015,07,25,01,46,12.90
2015,07,25,01,47,12.90
2015,07,25,01,48,12.90
2015,07,25,01,49,12.90
2015,07,25,01,50,12.90
2015,07,25,01,51,12.90
2015,07,25,01,52,12.90
2015,07,25,01,53,12.90
2015,07,25,01,54,12.90
2015,07,25,01,55,12.90
2015,07,25,01,56,12.90
2015,07,25,01,57,12.90
2015,07,25,01,58,12.90
2015,07,25,01,59,12.90
2015,07,25,02,00,12.90
2015,07,25,02,01,12.90
2015,07,25,02,02,12.90
2015,07,25,02,03,12.90
2015,07,25,02,04,12.90
2015,07,25,02,05,12.90
2015,07,25,02,06,12.90
2015,07,25,02,07,12.90
2015,07,25,02,08,12.90
2015,07,25,02,09,12.90
2015,07,25,02,10,12.90
2015,07,25,02,11,12.90
2015,07,25,02,12,12.90
2015,07,25,02,13,12.80
2015,07,25,02,14,12.80
2015,07,25,02,15,12.80
2015,07,25,02,16,12.80
2015,07,25,02,17,12.80
2015,07,25,02,18,12.80
2015,07,25,02,19,12.80
2015,07,25,02,20,12.80
2015,07,25,02,21,12.70
2015,07,25,02,22,12.70
2015,07,25,02,23,12.70
2015,07,25,02,24,12.70
2015,07,25,02,25,12.70
2015,07,25,02,26,12.70
2015,07,25,02,27,12.60
2015,07,25,02,28,12.60
2015,07,25,02,29,12.60
2015,07,25,02,30,12.60
2015,07,25,02,31,12.60
2015,07,25,02,32,12.60
2015,07,25,02,33,12.60
2015,07,25,02,34,12.60
2015,07,25,02,35,12.50
2015,07,25,02,36,12.50
2015,07,25,02,37,12.50
2015,07,25,02,38,12.50
2015,07,25,02,39,12.50
2015,07,25,02,40,12.50
2015,07,25,02,41,12.40
2015,07,25,02,42,12.40
2015,07,25,02,43,12.40
2015,07,25,02,44,12.40
2015,07,25,02,45,12.40
2015,07,25,02,46,12.40
2015,07,25,02,47,12.40
2015,07,25,02,48,12.40
2015,07,25,02,49,12.40
2015,07,25,02,50,12.40
2015,07,25,02,51,12.40
2015,07,25,02,52,12.40
2015,07,25,02,53,12.30
2015,07,25,02,54,12.30
2015,07,25,02,55,12.30
2015,07,25,02,56,12.30
2015,07,25,02,57,12.30
2015,07,25,02,58,12.30
2015,07,25,02,59,12.30
2015,07,25,03,00,12.30
2015,07,25,03,01,12.20
2015,07,25,03,02,12.20
2015,07,25,03,06,12.20
2015,07,25,03,07,12.20
2015,07,25,03,08,12.20
2015,07,25,03,09,12.20
2015,07,25,03,10,12.20
2015,07,25,03,11,12.10
2015,07,25,03,12,12.10
2015,07,25,03,13,12.10
2015,07,25,03,14,12.10
2015,07,25,03,15,12.10
2015,07,25,03,16,12.10
2015,07,25,03,17,12.10
2015,07,25,03,18,12.10
2015,07,25,03,19,12.10
2015,07,25,03,20,12.10
2015,07,25,03,21,12.00
2015,07,25,03,22,12.00
2015,07,25,03,23,12.00
2015,07,25,03,24,12.00
2015,07,25,03,25,11.90
2015,07,25,03,26,11.90
2015,07,25,03,27,11.90
2015,07,25,03,28,11.90
2015,07,25,03,29,11.90
2015,07,25,03,30,11.90
2015,07,25,03,31,11.90
2015,07,25,03,32,11.90
2015,07,25,03,33,11.90
2015,07,25,03,34,11.90
2015,07,25,03,35,11.90
2015,07,25,03,36,11.90
2015,07,25,03,37,11.90
2015,07,25,03,38,11.90
2015,07,25,03,39,11.90
2015,07,25,03,40,11.80
2015,07,25,03,41,11.80
2015,07,25,03,42,11.80
2015,07,25,03,43,11.80
2015,07,25,03,44,11.80
2015,07,25,03,45,11.80
2015,07,25,03,46,11.80
2015,07,25,03,47,11.80
2015,07,25,03,48,11.80
2015,07,25,03,49,11.80
2015,07,25,03,50,11.80
2015,07,25,03,51,11.80
2015,07,25,03,52,11.80
2015,07,25,03,53,11.80
2015,07,25,03,54,11.80
2015,07,25,03,55,11.70
2015,07,25,03,56,11.70
2015,07,25,03,57,11.70
2015,07,25,03,58,11.70
2015,07,25,03,59,11.70
2015,07,25,04,00,11.70
2015,07,25,04,01,11.70
2015,07,25,04,02,11.70
2015,07,25,04,03,11.70
2015,07,25,04,04,11.70
2015,07,25,04,05,11.70
2015,07,25,04,06,11.70
2015,07,25,04,07,11.70
2015,07,25,04,08,11.70
2015,07,25,04,09,11.70
2015,07,25,04,10,11.70
2015,07,25,04,11,11.70
2015,07,25,04,12,11.70
2015,07,25,04,13,11.70
2015,07,25,04,14,11.70
2015,07,25,04,15,11.70
2015,07,25,04,16,11.70
2015,07,25,04,17,11.70
2015,07,25,04,18,11.70
2015,07,25,04,19,11.70
2015,07,25,04,20,11.70
2015,07,25,04,21,11.70
2015,07,25,04,22,11.70
2015,07,25,04,23,11.70
2015,07,25,04,24,11.70
2015,07,25,04,25,11.80
2015,07,25,04,26,11.70
2015,07,25,04,27,11.70
2015,07,25,04,28,11.80
2015,07,25,04,29,11.80
2015,07,25,04,30,11.80
2015,07,25,04,31,11.80
2015,07,25,04,32,11.80
2015,07,25,04,33,11.80
2015,07,25,04,34,11.80
2015,07,25,04,35,11.80
2015,07,25,04,36,11.70
2015,07,25,04,37,11.70
2015,07,25,04,38,11.70
2015,07,25,04,39,11.70
2015,07,25,04,40,11.70
2015,07,25,04,41,11.70
2015,07,25,04,42,11.70
2015,07,25,04,43,11.70
2015,07,25,04,44,11.70
2015,07,25,04,45,11.70
2015,07,25,04,46,11.70
2015,07,25,04,47,11.70
2015,07,25,04,48,11.70
2015,07,25,04,49,11.60
2015,07,25,04,50,11.60
2015,07,25,04,51,11.60
2015,07,25,04,52,11.60
2015,07,25,04,53,11.60
2015,07,25,04,54,11.60
2015,07,25,04,55,11.60
2015,07,25,04,56,11.60
2015,07,25,04,57,11.60
2015,07,25,04,58,11.50
2015,07,25,04,59,11.50
2015,07,25,05,00,11.50
2015,07,25,05,01,11.50
2015,07,25,05,02,11.50
2015,07,25,05,03,11.50
2015,07,25,05,04,11.40
2015,07,25,05,05,11.40
2015,07,25,05,06,11.40
2015,07,25,05,07,11.40
2015,07,25,05,08,11.40
2015,07,25,05,09,11.40
2015,07,25,05,10,11.40
2015,07,25,05,11,11.40
2015,07,25,05,12,11.40
2015,07,25,05,13,11.40
2015,07,25,05,14,11.40
2015,07,25,05,15,11.40
2015,07,25,05,16,11.40
2015,07,25,05,17,11.30
2015,07,25,05,18,11.30
2015,07,25,05,19,11.30
2015,07,25,05,20,11.30
2015,07,25,05,21,11.30
2015,07,25,05,22,11.30
2015,07,25,05,23,11.30
2015,07,25,05,24,11.30
2015,07,25,05,25,11.30
2015,07,25,05,26,11.30
2015,07,25,05,27,11.30
2015,07,25,05,28,11.30
2015,07,25,05,29,11.30
2015,07,25,05,30,11.20
2015,07,25,05,31,11.20
2015,07,25,05,32,11.20
2015,07,25,05,33,11.20
2015,07,25,05,34,11.20
2015,07,25,05,35,11.20
2015,07,25,05,36,11.20
2015,07,25,05,37,11.20
2015,07,25,05,38,11.20
2015,07,25,05,39,11.20
2015,07,25,05,40,11.20
2015,07,25,05,41,11.20
2015,07,25,05,42,11.20
2015,07,25,05,43,11.20
2015,07,25,05,44,11.20
2015,07,25,05,45,11.20
2015,07,25,05,46,11.10
2015,07,25,05,47,11.10
2015,07,25,05,48,11.10
2015,07,25,05,49,11.10
2015,07,25,05,50,11.10
2015,07,25,05,51,11.10
2015,07,25,05,52,11.10
2015,07,25,05,53,11.10
2015,07,25,05,54,11.10
2015,07,25,05,55,11.10
2015,07,25,05,56,11.10
2015,07,25,05,57,11.10
2015,07,25,05,58,11.10
2015,07,25,05,59,11.10
2015,07,25,06,00,11.10
2015,07,25,06,01,11.10
2015,07,25,06,02,11.10
2015,07,25,06,03,11.10
2015,07,25,06,04,11.10
2015,07,25,06,05,11.10
2015,07,25,06,06,11.10
2015,07,25,06,07,11.10
2015,07,25,06,08,11.10
2015,07,25,06,09,11.10
2015,07,25,06,10,11.10
2015,07,25,06,11,11.10
2015,07,25,06,12,11.10
2015,07,25,06,13,11.10
2015,07,25,06,14,11.10
2015,07,25,06,15,11.10
2015,07,25,06,16,11.10
2015,07,25,06,17,11.10
2015,07,25,06,18,11.10
2015,07,25,06,19,11.10
2015,07,25,06,20,11.10
2015,07,25,06,21,11.10
2015,07,25,06,22,11.10
2015,07,25,06,23,11.20
2015,07,25,06,24,11.10
2015,07,25,06,25,11.20
2015,07,25,06,26,11.20
2015,07,25,06,27,11.20
2015,07,25,06,28,11.20
2015,07,25,06,29,11.20
2015,07,25,06,30,11.20
2015,07,25,06,31,11.20
2015,07,25,06,32,11.20
2015,07,25,06,33,11.20
2015,07,25,06,34,11.20
2015,07,25,06,35,11.20
2015,07,25,06,36,11.20
2015,07,25,06,37,11.20
2015,07,25,06,38,11.20
2015,07,25,06,39,11.20
2015,07,25,06,40,11.20
2015,07,25,06,41,11.20
2015,07,25,06,42,11.20
2015,07,25,06,43,11.20
2015,07,25,06,44,11.20
2015,07,25,06,45,11.20
2015,07,25,06,46,11.20
2015,07,25,06,47,11.20
2015,07,25,06,48,11.20
2015,07,25,06,49,11.30
2015,07,25,06,50,11.30
2015,07,25,06,51,11.30
2015,07,25,06,52,11.20
2015,07,25,06,53,11.20
2015,07,25,06,54,11.30
2015,07,25,06,55,11.30
2015,07,25,06,56,11.30
2015,07,25,06,57,11.30
2015,07,25,06,58,11.30
2015,07,25,06,59,11.30
2015,07,25,07,00,11.30
2015,07,25,07,01,11.30
2015,07,25,07,02,11.40
2015,07,25,07,03,11.40
2015,07,25,07,04,11.40
2015,07,25,07,05,11.40
2015,07,25,07,06,11.40
2015,07,25,07,07,11.50
2015,07,25,07,08,11.50
2015,07,25,07,09,11.60
2015,07,25,07,10,11.60
2015,07,25,07,11,11.60
2015,07,25,07,12,11.70
2015,07,25,07,13,11.70
2015,07,25,07,14,11.80
2015,07,25,07,15,11.80
2015,07,25,07,16,11.90
2015,07,25,07,17,11.90
2015,07,25,07,18,12.00
2015,07,25,07,19,12.10
2015,07,25,07,20,12.10
2015,07,25,07,21,12.20
2015,07,25,07,22,12.20
2015,07,25,07,23,12.30
2015,07,25,07,24,12.30
2015,07,25,07,25,12.30
2015,07,25,07,26,12.40
2015,07,25,07,27,12.40
2015,07,25,07,28,12.40
2015,07,25,07,29,12.50
2015,07,25,07,30,12.50
2015,07,25,07,31,12.60
2015,07,25,07,32,12.60
2015,07,25,07,33,12.70
2015,07,25,07,34,12.80
2015,07,25,07,35,12.80
2015,07,25,07,36,12.90
2015,07,25,07,37,13.00
2015,07,25,07,38,13.00
2015,07,25,07,39,13.00
2015,07,25,07,40,13.10
2015,07,25,07,41,13.10
2015,07,25,07,42,13.20
2015,07,25,07,43,13.20
2015,07,25,07,44,13.20
2015,07,25,07,45,13.20
2015,07,25,07,46,13.20
2015,07,25,07,47,13.30
2015,07,25,07,48,13.30
2015,07,25,07,49,13.30
2015,07,25,07,50,13.30
2015,07,25,07,51,13.30
2015,07,25,07,52,13.30
2015,07,25,07,53,13.30
2015,07,25,07,54,13.40
2015,07,25,07,55,13.50
2015,07,25,07,56,13.50
2015,07,25,07,57,13.60
2015,07,25,07,58,13.60
2015,07,25,07,59,13.60
2015,07,25,08,00,13.70
2015,07,25,08,01,13.70
2015,07,25,08,02,13.70
2015,07,25,08,03,13.70
2015,07,25,08,04,13.70
2015,07,25,08,05,13.80
2015,07,25,08,06,13.80
2015,07,25,08,07,13.80
2015,07,25,08,08,13.90
2015,07,25,08,09,13.90
2015,07,25,08,10,14.00
2015,07,25,08,11,14.00
2015,07,25,08,12,14.10
2015,07,25,08,13,14.10
2015,07,25,08,14,14.20
2015,07,25,08,15,14.20
2015,07,25,08,16,14.30
2015,07,25,08,17,14.30
2015,07,25,08,18,14.40
2015,07,25,08,19,14.40
2015,07,25,08,20,14.40
2015,07,25,08,21,14.50
2015,07,25,08,22,14.70
2015,07,25,08,23,14.80
2015,07,25,08,24,14.90
2015,07,25,08,25,15.00
2015,07,25,08,26,15.00
2015,07,25,08,27,15.10
2015,07,25,08,28,15.20
2015,07,25,08,29,15.20
2015,07,25,08,30,15.30
2015,07,25,08,31,15.40
2015,07,25,08,32,15.60
2015,07,25,08,33,15.70
2015,07,25,08,34,15.80
2015,07,25,08,35,15.90
2015,07,25,08,36,16.00
2015,07,25,08,37,16.10
2015,07,25,08,38,16.10
2015,07,25,08,39,16.20
2015,07,25,08,40,16.30
2015,07,25,08,41,16.40
2015,07,25,08,42,16.40
2015,07,25,08,43,16.50
2015,07,25,08,44,16.60
2015,07,25,08,45,16.70
2015,07,25,08,46,16.80
2015,07,25,08,47,16.90
2015,07,25,08,48,17.00
2015,07,25,08,49,17.20
2015,07,25,08,50,17.30
2015,07,25,08,51,17.30
2015,07,25,08,52,17.40
2015,07,25,08,53,17.50
2015,07,25,08,54,17.60
2015,07,25,08,55,17.70
2015,07,25,08,56,17.70
2015,07,25,08,57,17.80
2015,07,25,08,58,17.80
2015,07,25,08,59,17.80
2015,07,25,09,00,17.80
2015,07,25,09,01,17.80
2015,07,25,09,02,17.70
2015,07,25,09,03,17.70
2015,07,25,09,04,17.60
2015,07,25,09,05,17.70
2015,07,25,09,06,17.80
2015,07,25,09,07,17.90
2015,07,25,09,08,18.00
2015,07,25,09,09,18.00
2015,07,25,09,10,18.10
2015,07,25,09,11,18.20
2015,07,25,09,12,18.30
2015,07,25,09,13,18.40
2015,07,25,09,14,18.30
2015,07,25,09,15,18.30
2015,07,25,09,16,18.40
2015,07,25,09,17,18.40
2015,07,25,09,18,18.50
2015,07,25,09,19,18.50
2015,07,25,09,20,18.60
2015,07,25,09,21,18.60
2015,07,25,09,22,18.60
2015,07,25,09,23,18.50
2015,07,25,09,24,18.50
2015,07,25,09,25,18.50
2015,07,25,09,26,18.70
2015,07,25,09,27,18.70
2015,07,25,09,28,18.70
2015,07,25,09,29,18.70
2015,07,25,09,30,18.80
2015,07,25,09,31,18.80
2015,07,25,09,32,18.70
2015,07,25,09,33,18.70
2015,07,25,09,34,18.70
2015,07,25,09,35,18.70
2015,07,25,09,36,18.70
2015,07,25,09,37,18.80
2015,07,25,09,38,18.90
2015,07,25,09,39,19.00
2015,07,25,09,40,19.10
2015,07,25,09,41,19.20
2015,07,25,09,42,19.20
2015,07,25,09,43,19.20
2015,07,25,09,44,19.20
2015,07,25,09,45,19.20
2015,07,25,09,46,19.20
2015,07,25,09,47,19.20
2015,07,25,09,48,19.20
2015,07,25,09,49,19.20
2015,07,25,09,50,19.20
2015,07,25,09,51,19.30
2015,07,25,09,52,19.40
2015,07,25,09,53,19.40
2015,07,25,09,54,19.40
2015,07,25,09,55,19.40
2015,07,25,09,56,19.40
2015,07,25,09,57,19.40
2015,07,25,09,58,19.40
2015,07,25,09,59,19.50
2015,07,25,10,00,19.50
2015,07,25,10,01,19.40
2015,07,25,10,02,19.30
2015,07,25,10,03,19.30
2015,07,25,10,04,19.30
2015,07,25,10,05,19.30
2015,07,25,10,06,19.30
2015,07,25,10,07,19.30
2015,07,25,10,08,19.30
2015,07,25,10,09,19.30
2015,07,25,10,10,19.30
2015,07,25,10,11,19.30
2015,07,25,10,12,19.30
2015,07,25,10,13,19.20
2015,07,25,10,14,19.20
2015,07,25,10,15,19.20
2015,07,25,10,16,19.10
2015,07,25,10,17,19.10
2015,07,25,10,18,19.00
2015,07,25,10,19,19.00
2015,07,25,10,20,18.90
2015,07,25,10,21,18.90
2015,07,25,10,22,18.90
2015,07,25,10,23,18.90
2015,07,25,10,24,18.80
2015,07,25,10,25,18.80
2015,07,25,10,26,18.80
2015,07,25,10,27,18.80
2015,07,25,10,28,18.60
2015,07,25,10,29,18.50
2015,07,25,10,30,18.40
2015,07,25,10,31,18.40
2015,07,25,10,32,18.40
2015,07,25,10,33,18.40
2015,07,25,10,34,18.30
2015,07,25,10,35,18.30
2015,07,25,10,36,18.30
2015,07,25,10,37,18.30
2015,07,25,10,38,18.30
2015,07,25,10,39,18.30
2015,07,25,10,40,18.30
2015,07,25,10,41,18.30
2015,07,25,10,42,18.40
2015,07,25,10,43,18.40
2015,07,25,10,44,18.40
2015,07,25,10,45,18.40
2015,07,25,10,46,18.40
2015,07,25,10,47,18.50
2015,07,25,10,48,18.50
2015,07,25,10,49,18.40
2015,07,25,10,50,18.40
2015,07,25,10,51,18.30
2015,07,25,10,52,18.20
2015,07,25,10,53,18.10
2015,07,25,10,54,18.10
2015,07,25,10,55,18.10
2015,07,25,10,56,18.10
2015,07,25,10,57,18.10
2015,07,25,10,58,18.10
2015,07,25,10,59,18.10
2015,07,25,11,00,18.10
2015,07,25,11,01,18.10
2015,07,25,11,02,18.20
2015,07,25,11,03,18.20
2015,07,25,11,04,18.20
2015,07,25,11,05,18.20
2015,07,25,11,06,18.20
2015,07,25,11,07,18.20
2015,07,25,11,08,18.30
2015,07,25,11,09,18.30
2015,07,25,11,10,18.30
2015,07,25,11,11,18.40
2015,07,25,11,12,18.40
2015,07,25,11,13,18.50
2015,07,25,11,14,18.50
2015,07,25,11,15,18.50
2015,07,25,11,16,18.60
2015,07,25,11,17,18.60
2015,07,25,11,18,18.60
2015,07,25,11,19,18.60
2015,07,25,11,20,18.60
2015,07,25,11,21,18.60
2015,07,25,11,22,18.60
2015,07,25,11,23,18.60
2015,07,25,11,24,18.60
2015,07,25,11,25,18.60
2015,07,25,11,26,18.70
2015,07,25,11,27,18.60
2015,07,25,11,28,18.60
2015,07,25,11,29,18.60
2015,07,25,11,30,18.60
2015,07,25,11,31,18.60
2015,07,25,11,32,18.50
2015,07,25,11,33,18.60
2015,07,25,11,34,18.60
2015,07,25,11,35,18.60
2015,07,25,11,36,18.60
2015,07,25,11,37,18.60
2015,07,25,11,38,18.60
2015,07,25,11,39,18.60
2015,07,25,11,40,18.50
2015,07,25,11,41,18.40
2015,07,25,11,42,18.30
2015,07,25,11,43,18.20
2015,07,25,11,44,18.20
2015,07,25,11,45,18.20
2015,07,25,11,46,18.20
2015,07,25,11,47,18.30
2015,07,25,11,48,18.30
2015,07,25,11,49,18.30
2015,07,25,11,50,18.40
2015,07,25,11,51,18.40
2015,07,25,11,52,18.30
2015,07,25,11,53,18.40
2015,07,25,11,54,18.40
2015,07,25,11,55,18.40
2015,07,25,11,56,18.50
2015,07,25,11,57,18.50
2015,07,25,11,58,18.50
2015,07,25,11,59,18.50
2015,07,25,12,00,18.50
2015,07,25,12,01,18.50
2015,07,25,12,02,18.60
2015,07,25,12,03,18.60
2015,07,25,12,04,18.60
2015,07,25,12,05,18.70
2015,07,25,12,06,18.70
2015,07,25,12,07,18.70
2015,07,25,12,08,18.70
2015,07,25,12,09,18.60
2015,07,25,12,10,18.50
2015,07,25,12,11,18.50
2015,07,25,12,12,18.50
2015,07,25,12,13,18.40
2015,07,25,12,14,18.40
2015,07,25,12,15,18.40
2015,07,25,12,16,18.40
2015,07,25,12,17,18.40
2015,07,25,12,18,18.40
2015,07,25,12,19,18.40
2015,07,25,12,20,18.40
2015,07,25,12,21,18.30
2015,07,25,12,22,18.30
2015,07,25,12,23,18.30
2015,07,25,12,24,18.30
2015,07,25,12,25,18.30
2015,07,25,12,26,18.30
2015,07,25,12,27,18.30
2015,07,25,12,28,18.40
2015,07,25,12,29,18.40
2015,07,25,12,30,18.50
2015,07,25,12,31,18.60
2015,07,25,12,32,18.70
2015,07,25,12,33,18.70
2015,07,25,12,34,18.80
2015,07,25,12,35,18.80
2015,07,25,12,36,18.80
2015,07,25,12,37,18.80
2015,07,25,12,38,18.70
2015,07,25,12,39,18.70
2015,07,25,12,40,18.70
2015,07,25,12,41,18.70
2015,07,25,12,42,18.70
2015,07,25,12,43,18.70
2015,07,25,12,44,18.70
2015,07,25,12,45,18.70
2015,07,25,12,46,18.70
2015,07,25,12,47,18.70
2015,07,25,12,48,18.70
2015,07,25,12,49,18.70
2015,07,25,12,50,18.70
2015,07,25,12,51,18.70
2015,07,25,12,52,18.70
2015,07,25,12,53,18.70
2015,07,25,12,54,18.70
2015,07,25,12,55,18.70
2015,07,25,12,56,18.70
2015,07,25,12,57,18.70
2015,07,25,12,58,18.70
2015,07,25,12,59,18.60
2015,07,25,13,00,18.60
2015,07,25,13,01,18.60
2015,07,25,13,02,18.50
2015,07,25,13,03,18.50
2015,07,25,13,04,18.40
2015,07,25,13,05,18.40
2015,07,25,13,06,18.40
2015,07,25,13,07,18.40
2015,07,25,13,08,18.40
2015,07,25,13,09,18.40
2015,07,25,13,10,18.40
2015,07,25,13,11,18.40
2015,07,25,13,12,18.30
2015,07,25,13,13,18.30
2015,07,25,13,14,18.30
2015,07,25,13,15,18.30
2015,07,25,13,16,18.30
2015,07,25,13,17,18.30
2015,07,25,13,18,18.30
2015,07,25,13,19,18.30
2015,07,25,13,20,18.30
2015,07,25,13,21,18.30
2015,07,25,13,22,18.30
2015,07,25,13,23,18.30
2015,07,25,13,24,18.30
2015,07,25,13,25,18.30
2015,07,25,13,26,18.30
2015,07,25,13,27,18.30
2015,07,25,13,28,18.30
2015,07,25,13,29,18.30
2015,07,25,13,30,18.30
2015,07,25,13,31,18.30
2015,07,25,13,32,18.30
2015,07,25,13,33,18.20
2015,07,25,13,34,18.20
2015,07,25,13,35,18.20
2015,07,25,13,36,18.20
2015,07,25,13,37,18.20
2015,07,25,13,38,18.20
2015,07,25,13,39,18.10
2015,07,25,13,40,18.10
2015,07,25,13,41,18.10
2015,07,25,13,42,18.00
2015,07,25,13,43,17.90
2015,07,25,13,44,17.90
2015,07,25,13,45,17.80
2015,07,25,13,46,17.70
2015,07,25,13,47,17.70
2015,07,25,13,48,17.70
2015,07,25,13,49,17.70
2015,07,25,13,50,17.70
2015,07,25,13,51,17.70
2015,07,25,13,52,17.70
2015,07,25,13,53,17.70
2015,07,25,13,54,17.70
2015,07,25,13,55,17.70
2015,07,25,13,56,17.70
2015,07,25,13,57,17.80
2015,07,25,13,58,17.90
2015,07,25,13,59,17.90
2015,07,25,14,00,17.90
2015,07,25,14,01,18.00
2015,07,25,14,02,18.00
2015,07,25,14,03,18.10
2015,07,25,14,04,18.10
2015,07,25,14,05,18.20
2015,07,25,14,06,18.20
2015,07,25,14,07,18.20
2015,07,25,14,08,18.30
2015,07,25,14,09,18.30
2015,07,25,14,10,18.30
2015,07,25,14,11,18.30
2015,07,25,14,12,18.30
2015,07,25,14,13,18.30
2015,07,25,14,14,18.30
2015,07,25,14,15,18.30
2015,07,25,14,16,18.30
2015,07,25,14,17,18.40
2015,07,25,14,18,18.30
2015,07,25,14,19,18.30
2015,07,25,14,20,18.40
2015,07,25,14,21,18.40
2015,07,25,14,22,18.40
2015,07,25,14,23,18.50
2015,07,25,14,24,18.50
2015,07,25,14,25,18.60
2015,07,25,14,26,18.60
2015,07,25,14,27,18.60
2015,07,25,14,28,18.60
2015,07,25,14,29,18.60
2015,07,25,14,30,18.60
2015,07,25,14,31,18.70
2015,07,25,14,32,18.70
2015,07,25,14,33,18.70
2015,07,25,14,34,18.80
2015,07,25,14,35,18.80
2015,07,25,14,36,18.80
2015,07,25,14,37,18.70
2015,07,25,14,38,18.70
2015,07,25,14,39,18.60
2015,07,25,14,40,18.60
2015,07,25,14,41,18.60
2015,07,25,14,42,18.50
2015,07,25,14,43,18.50
2015,07,25,14,44,18.50
2015,07,25,14,45,18.60
2015,07,25,14,46,18.60
2015,07,25,14,47,18.70
2015,07,25,14,48,18.70
2015,07,25,14,49,18.70
2015,07,25,14,50,18.70
2015,07,25,14,51,18.60
2015,07,25,14,52,18.50
2015,07,25,14,53,18.50
2015,07,25,14,54,18.30
2015,07,25,14,55,18.20
2015,07,25,14,56,18.10
2015,07,25,14,57,18.00
2015,07,25,14,58,17.90
2015,07,25,14,59,17.80
2015,07,25,15,00,17.70
2015,07,25,15,01,17.70
2015,07,25,15,02,17.70
2015,07,25,15,03,17.70
2015,07,25,15,04,17.70
2015,07,25,15,05,17.70
2015,07,25,15,06,17.80
2015,07,25,15,07,17.80
2015,07,25,15,08,17.80
2015,07,25,15,09,17.90
2015,07,25,15,10,18.00
2015,07,25,15,11,18.00
2015,07,25,15,12,18.10
2015,07,25,15,13,18.20
2015,07,25,15,14,18.30
2015,07,25,15,15,18.30
2015,07,25,15,16,18.40
2015,07,25,15,17,18.40
2015,07,25,15,18,18.50
2015,07,25,15,19,18.50
2015,07,25,15,20,18.60
2015,07,25,15,21,18.60
2015,07,25,15,22,18.70
2015,07,25,15,23,18.70
2015,07,25,15,24,18.90
2015,07,25,15,25,19.00
2015,07,25,15,26,19.00
2015,07,25,15,27,19.10
2015,07,25,15,28,19.20
2015,07,25,15,29,19.30
2015,07,25,15,30,19.30
2015,07,25,15,31,19.30
2015,07,25,15,32,19.20
2015,07,25,15,33,19.30
2015,07,25,15,34,19.40
2015,07,25,15,35,19.50
2015,07,25,15,36,19.60
2015,07,25,15,37,19.60
2015,07,25,15,38,19.70
2015,07,25,15,39,19.70
2015,07,25,15,40,19.70
2015,07,25,15,41,19.60
2015,07,25,15,42,19.60
2015,07,25,15,43,19.60
2015,07,25,15,44,19.60
2015,07,25,15,45,19.60
2015,07,25,15,46,19.60
2015,07,25,15,47,19.60
2015,07,25,15,48,19.60
2015,07,25,15,49,19.60
2015,07,25,15,50,19.60
2015,07,25,15,51,19.60
2015,07,25,15,52,19.60
2015,07,25,15,53,19.50
2015,07,25,15,54,19.50
2015,07,25,15,55,19.40
2015,07,25,15,56,19.30
2015,07,25,15,57,19.30
2015,07,25,15,58,19.30
2015,07,25,15,59,19.30
2015,07,25,16,00,19.30
2015,07,25,16,01,19.30
2015,07,25,16,02,19.30
2015,07,25,16,03,19.30
2015,07,25,16,04,19.30
2015,07,25,16,05,19.30
2015,07,25,16,06,19.30
2015,07,25,16,07,19.30
2015,07,25,16,08,19.30
2015,07,25,16,09,19.30
2015,07,25,16,10,19.30
2015,07,25,16,11,19.30
2015,07,25,16,12,19.20
2015,07,25,16,13,19.10
2015,07,25,16,14,19.00
2015,07,25,16,15,18.90
2015,07,25,16,16,18.70
2015,07,25,16,17,18.50
2015,07,25,16,18,18.40
2015,07,25,16,19,18.20
2015,07,25,16,20,18.00
2015,07,25,16,21,17.90
2015,07,25,16,22,17.70
2015,07,25,16,23,17.60
2015,07,25,16,24,17.60
2015,07,25,16,25,17.50
2015,07,25,16,26,17.40
2015,07,25,16,27,17.30
2015,07,25,16,28,17.20
2015,07,25,16,29,17.10
2015,07,25,16,30,17.00
2015,07,25,16,31,16.90
2015,07,25,16,32,16.90
2015,07,25,16,33,16.90
2015,07,25,16,34,16.80
2015,07,25,16,35,16.80
2015,07,25,16,36,16.80
2015,07,25,16,37,16.80
2015,07,25,16,38,16.80
2015,07,25,16,39,16.80
2015,07,25,16,40,16.90
2015,07,25,16,41,16.90
2015,07,25,16,42,16.90
2015,07,25,16,43,16.90
2015,07,25,16,44,17.00
2015,07,25,16,45,17.00
2015,07,25,16,46,17.10
2015,07,25,16,47,17.10
2015,07,25,16,48,17.20
2015,07,25,16,49,17.20
2015,07,25,16,50,17.30
2015,07,25,16,51,17.40
2015,07,25,16,52,17.50
2015,07,25,16,53,17.60
2015,07,25,16,54,17.70
2015,07,25,16,55,17.80
2015,07,25,16,56,17.90
2015,07,25,16,57,17.90
2015,07,25,16,58,18.00
2015,07,25,16,59,18.00
2015,07,25,17,00,18.10
2015,07,25,17,01,18.10
2015,07,25,17,02,18.20
2015,07,25,17,03,18.20
2015,07,25,17,04,18.20
2015,07,25,17,05,18.20
2015,07,25,17,06,18.20
2015,07,25,17,07,18.10
2015,07,25,17,08,18.10
2015,07,25,17,09,18.10
2015,07,25,17,10,18.10
2015,07,25,17,11,18.20
2015,07,25,17,12,18.20
2015,07,25,17,13,18.20
2015,07,25,17,14,18.20
2015,07,25,17,15,18.30
2015,07,25,17,16,18.30
2015,07,25,17,17,18.40
2015,07,25,17,18,18.50
2015,07,25,17,19,18.60
2015,07,25,17,20,18.60
2015,07,25,17,21,18.70
2015,07,25,17,22,18.70